{"data":{"norad_id":45669,"epoch":"2026-09-20T04:46:19.636896Z","epoch_age_seconds":44179,"freshness":"FRESH","line1":"1 45669U 20035N   26263.19883839  .00050655  00000+0  39086-3 0  9997","line2":"2 45669  53.0180 154.5934 0001116  12.8940 347.2105 15.71457612349718","mean_motion":15.71457612,"eccentricity":0.0001116,"inclination_deg":53.018,"raan_deg":154.5934,"arg_perigee_deg":12.894,"mean_anomaly_deg":347.2105,"bstar":0.00039086,"rev_number":34971,"period_min":91.634670194337,"perigee_km":353.97900105603,"apogee_km":355.48177705727,"semimajor_km":6732.8673890567,"source":"CELESTRAK","updated_at":"2026-09-20T09:00:38.450567Z"}}